Time,TemperatureF,DewpointF,PressureIn,WindDirection,WindDirectionDegrees,WindSpeedMPH,WindSpeedGustMPH,Humidity,HourlyPrecipIn,Conditions,Clouds,dailyrainin,SoftwareType,DateUTC
2013-05-25 00:02:00,64.0,47.0,30.11,SE,128,4.0,4.0,54,0.00,,,0.00,,2013-05-25 05:02:00,
2013-05-25 00:12:00,64.0,47.0,30.11,SE,128,4.0,4.0,54,0.00,,,0.00,,2013-05-25 05:12:00,
2013-05-25 00:22:00,64.0,47.0,30.11,ESE,105,3.0,3.0,54,0.00,,,0.00,,2013-05-25 05:22:00,
2013-05-25 00:32:00,64.0,47.0,30.11,ESE,105,3.0,3.0,54,0.00,,,0.00,,2013-05-25 05:32:00,
2013-05-25 00:43:00,64.0,47.0,30.11,ESE,105,3.0,3.0,54,0.00,,,0.00,,2013-05-25 05:43:00,
2013-05-25 00:52:00,63.0,46.0,30.13,SE,133,3.0,3.0,54,0.00,,,0.00,,2013-05-25 05:52:00,
2013-05-25 01:02:00,63.0,46.0,30.13,SE,133,3.0,3.0,54,0.00,,,0.00,,2013-05-25 06:02:00,
2013-05-25 01:12:00,63.0,46.0,30.13,SE,133,3.0,3.0,54,0.00,,,0.00,,2013-05-25 06:12:00,
2013-05-25 01:21:00,63.0,46.0,30.13,SE,133,3.0,3.0,54,0.00,,,0.00,,2013-05-25 06:21:00,
2013-05-25 01:32:00,64.0,47.0,30.11,ESE,113,2.0,7.0,54,0.00,,,0.00,,2013-05-25 06:32:00,
2013-05-25 01:42:00,64.0,47.0,30.11,ESE,113,2.0,7.0,54,0.00,,,0.00,,2013-05-25 06:42:00,
2013-05-25 01:52:00,64.0,47.0,30.11,ESE,113,2.0,7.0,54,0.00,,,0.00,,2013-05-25 06:52:00,
2013-05-25 02:01:00,64.0,47.0,30.10,SE,134,4.0,4.0,55,0.00,,,0.00,,2013-05-25 07:01:00,
2013-05-25 02:11:00,64.0,47.0,30.10,SE,134,4.0,4.0,55,0.00,,,0.00,,2013-05-25 07:11:00,
2013-05-25 02:21:00,64.0,47.0,30.10,SE,134,4.0,4.0,55,0.00,,,0.00,,2013-05-25 07:21:00,
2013-05-25 02:32:00,63.0,47.0,30.09,SSE,157,4.0,4.0,55,0.00,,,0.00,,2013-05-25 07:32:00,
2013-05-25 02:42:00,63.0,47.0,30.09,SSE,157,4.0,4.0,55,0.00,,,0.00,,2013-05-25 07:42:00,
2013-05-25 02:52:00,63.0,47.0,30.09,SSE,157,4.0,4.0,55,0.00,,,0.00,,2013-05-25 07:52:00,
2013-05-25 03:02:00,63.0,48.0,30.10,SSE,153,2.0,5.0,57,0.00,,,0.00,,2013-05-25 08:02:00,
2013-05-25 03:11:00,63.0,48.0,30.10,SSE,153,2.0,5.0,57,0.00,,,0.00,,2013-05-25 08:11:00,
2013-05-25 03:22:00,63.0,48.0,30.10,SSE,153,2.0,5.0,57,0.00,,,0.00,,2013-05-25 08:22:00,
2013-05-25 03:32:00,63.0,48.0,30.09,SE,138,8.0,14.0,59,0.00,,,0.00,,2013-05-25 08:32:00,
2013-05-25 03:42:00,63.0,48.0,30.09,SE,138,8.0,14.0,59,0.00,,,0.00,,2013-05-25 08:42:00,
2013-05-25 03:52:00,63.0,48.0,30.09,SE,138,8.0,14.0,59,0.00,,,0.00,,2013-05-25 08:52:00,
2013-05-25 04:02:00,63.0,50.0,30.09,SE,139,3.0,3.0,62,0.00,,,0.00,,2013-05-25 09:02:00,
2013-05-25 04:11:00,63.0,50.0,30.09,SE,139,3.0,3.0,62,0.00,,,0.00,,2013-05-25 09:11:00,
2013-05-25 04:21:00,63.0,50.0,30.09,SE,139,3.0,3.0,62,0.00,,,0.00,,2013-05-25 09:21:00,
2013-05-25 04:33:00,62.0,49.0,30.11,SSE,156,2.0,4.0,62,0.00,,,0.00,,2013-05-25 09:33:00,
2013-05-25 04:43:00,62.0,49.0,30.11,SSE,156,2.0,4.0,62,0.00,,,0.00,,2013-05-25 09:43:00,
2013-05-25 04:53:00,62.0,49.0,30.11,SSE,156,2.0,4.0,62,0.00,,,0.00,,2013-05-25 09:53:00,
2013-05-25 05:03:00,62.0,49.0,30.11,SSE,167,3.0,6.0,63,0.00,,,0.00,,2013-05-25 10:03:00,
2013-05-25 05:12:00,62.0,49.0,30.11,SSE,167,3.0,6.0,63,0.00,,,0.00,,2013-05-25 10:12:00,
2013-05-25 05:22:00,62.0,49.0,30.11,SSE,167,3.0,6.0,63,0.00,,,0.00,,2013-05-25 10:22:00,
2013-05-25 05:33:00,62.0,50.0,30.10,SE,126,4.0,4.0,65,0.00,,,0.00,,2013-05-25 10:33:00,
2013-05-25 05:42:00,62.0,50.0,30.10,SE,126,4.0,4.0,65,0.00,,,0.00,,2013-05-25 10:42:00,
2013-05-25 05:52:00,62.0,50.0,30.10,SE,126,4.0,4.0,65,0.00,,,0.00,,2013-05-25 10:52:00,
2013-05-25 06:02:00,62.0,51.0,30.09,SSE,151,3.0,6.0,66,0.00,,,0.00,,2013-05-25 11:02:00,
2013-05-25 06:12:00,62.0,51.0,30.09,SSE,151,3.0,6.0,66,0.00,,,0.00,,2013-05-25 11:12:00,
2013-05-25 06:22:00,62.0,51.0,30.09,SSE,151,3.0,6.0,66,0.00,,,0.00,,2013-05-25 11:22:00,
2013-05-25 06:32:00,62.0,51.0,30.09,SE,126,4.0,4.0,67,0.00,,,0.00,,2013-05-25 11:32:00,
2013-05-25 06:42:00,62.0,51.0,30.09,SE,126,4.0,4.0,67,0.00,,,0.00,,2013-05-25 11:42:00,
2013-05-25 06:52:00,62.0,51.0,30.09,SE,126,4.0,4.0,67,0.00,,,0.00,,2013-05-25 11:52:00,
2013-05-25 07:01:00,62.0,51.0,30.08,SSE,152,2.0,3.0,68,0.00,,,0.00,,2013-05-25 12:01:00,
2013-05-25 07:12:00,62.0,51.0,30.08,SSE,152,2.0,3.0,68,0.00,,,0.00,,2013-05-25 12:12:00,
2013-05-25 07:22:00,62.0,51.0,30.08,SSE,152,2.0,3.0,68,0.00,,,0.00,,2013-05-25 12:22:00,
2013-05-25 07:32:00,62.0,52.0,30.10,South,178,3.0,5.0,70,0.00,,,0.00,,2013-05-25 12:32:00,
2013-05-25 07:42:00,62.0,52.0,30.10,South,178,3.0,5.0,70,0.00,,,0.00,,2013-05-25 12:42:00,
2013-05-25 07:52:00,62.0,52.0,30.10,South,178,3.0,5.0,70,0.00,,,0.00,,2013-05-25 12:52:00,
2013-05-25 08:02:00,63.0,53.0,30.09,ESE,120,3.0,6.0,71,0.00,,,0.00,,2013-05-25 13:02:00,
2013-05-25 08:11:00,63.0,53.0,30.09,ESE,120,3.0,6.0,71,0.00,,,0.00,,2013-05-25 13:11:00,
2013-05-25 08:22:00,63.0,53.0,30.09,ESE,120,3.0,6.0,71,0.00,,,0.00,,2013-05-25 13:22:00,
2013-05-25 08:32:00,63.0,54.0,30.08,South,189,3.0,5.0,72,0.00,,,0.00,,2013-05-25 13:32:00,
2013-05-25 08:42:00,63.0,54.0,30.08,South,189,3.0,5.0,72,0.00,,,0.00,,2013-05-25 13:42:00,
2013-05-25 08:52:00,63.0,54.0,30.08,South,189,3.0,5.0,72,0.00,,,0.00,,2013-05-25 13:52:00,
2013-05-25 09:02:00,64.0,55.0,30.08,South,169,4.0,5.0,73,0.00,,,0.00,,2013-05-25 14:02:00,
2013-05-25 09:11:00,64.0,55.0,30.08,South,169,4.0,5.0,73,0.00,,,0.00,,2013-05-25 14:11:00,
2013-05-25 09:22:00,64.0,55.0,30.08,South,169,4.0,5.0,73,0.00,,,0.00,,2013-05-25 14:22:00,
2013-05-25 09:32:00,65.0,56.0,30.08,SE,142,4.0,6.0,74,0.00,,,0.00,,2013-05-25 14:32:00,
2013-05-25 09:42:00,65.0,56.0,30.08,SE,142,4.0,6.0,74,0.00,,,0.00,,2013-05-25 14:42:00,
2013-05-25 09:52:00,65.0,56.0,30.08,SE,142,4.0,6.0,74,0.00,,,0.00,,2013-05-25 14:52:00,
2013-05-25 10:01:00,66.0,57.0,30.08,ESE,114,3.0,5.0,73,0.00,,,0.00,,2013-05-25 15:01:00,
2013-05-25 10:11:00,66.0,57.0,30.08,ESE,114,3.0,5.0,73,0.00,,,0.00,,2013-05-25 15:11:00,
2013-05-25 10:22:00,66.0,57.0,30.08,ESE,114,3.0,5.0,73,0.00,,,0.00,,2013-05-25 15:22:00,
2013-05-25 10:33:00,68.0,59.0,30.10,East,96,3.0,5.0,72,0.00,,,0.00,,2013-05-25 15:33:00,
2013-05-25 10:43:00,68.0,59.0,30.10,East,96,3.0,5.0,72,0.00,,,0.00,,2013-05-25 15:43:00,
2013-05-25 10:53:00,68.0,59.0,30.10,East,96,3.0,5.0,72,0.00,,,0.00,,2013-05-25 15:53:00,
2013-05-25 11:03:00,69.0,59.0,30.10,East,90,2.0,4.0,70,0.00,,,0.00,,2013-05-25 16:03:00,
2013-05-25 11:12:00,69.0,59.0,30.10,East,90,2.0,4.0,70,0.00,,,0.00,,2013-05-25 16:12:00,
2013-05-25 11:23:00,69.0,59.0,30.10,East,90,2.0,4.0,70,0.00,,,0.00,,2013-05-25 16:23:00,
2013-05-25 11:32:00,70.0,60.0,30.09,ENE,69,2.0,2.0,71,0.00,,,0.00,,2013-05-25 16:32:00,
2013-05-25 11:42:00,70.0,60.0,30.09,ENE,69,2.0,2.0,71,0.00,,,0.00,,2013-05-25 16:42:00,
2013-05-25 11:52:00,70.0,60.0,30.09,ENE,69,2.0,2.0,71,0.00,,,0.00,,2013-05-25 16:52:00,
2013-05-25 12:02:00,74.0,62.0,30.10,East,85,1.0,2.0,67,0.00,,,0.00,,2013-05-25 17:02:00,
2013-05-25 12:11:00,74.0,62.0,30.10,East,85,1.0,2.0,67,0.00,,,0.00,,2013-05-25 17:11:00,
2013-05-25 12:22:00,74.0,62.0,30.10,East,85,1.0,2.0,67,0.00,,,0.00,,2013-05-25 17:22:00,
2013-05-25 12:32:00,76.0,64.0,30.10,South,179,2.0,2.0,66,0.00,,,0.00,,2013-05-25 17:32:00,
2013-05-25 12:42:00,76.0,64.0,30.10,South,179,2.0,2.0,66,0.00,,,0.00,,2013-05-25 17:42:00,
2013-05-25 12:52:00,76.0,64.0,30.10,South,179,2.0,2.0,66,0.00,,,0.00,,2013-05-25 17:52:00,
2013-05-25 13:01:00,77.0,64.0,30.09,SSW,203,1.0,2.0,64,0.00,,,0.00,,2013-05-25 18:01:00,
2013-05-25 13:11:00,77.0,64.0,30.09,SSW,203,1.0,2.0,64,0.00,,,0.00,,2013-05-25 18:11:00,
2013-05-25 13:21:00,77.0,64.0,30.09,SSW,203,1.0,2.0,64,0.00,,,0.00,,2013-05-25 18:21:00,
2013-05-25 13:32:00,78.0,64.0,30.07,East,87,2.0,2.0,63,0.00,,,0.00,,2013-05-25 18:32:00,
2013-05-25 13:42:00,78.0,64.0,30.07,East,87,2.0,2.0,63,0.00,,,0.00,,2013-05-25 18:42:00,
2013-05-25 13:52:00,78.0,64.0,30.07,East,87,2.0,2.0,63,0.00,,,0.00,,2013-05-25 18:52:00,
2013-05-25 14:01:00,80.0,65.0,30.06,South,173,2.0,3.0,61,0.00,,,0.00,,2013-05-25 19:01:00,
2013-05-25 14:11:00,80.0,65.0,30.06,South,173,2.0,3.0,61,0.00,,,0.00,,2013-05-25 19:11:00,
2013-05-25 14:21:00,80.0,65.0,30.06,South,173,2.0,3.0,61,0.00,,,0.00,,2013-05-25 19:21:00,
2013-05-25 14:32:00,80.0,64.0,30.05,South,178,4.0,4.0,59,0.00,,,0.00,,2013-05-25 19:32:00,
2013-05-25 14:42:00,80.0,64.0,30.05,South,178,4.0,4.0,59,0.00,,,0.00,,2013-05-25 19:42:00,
2013-05-25 14:52:00,80.0,64.0,30.05,South,178,4.0,4.0,59,0.00,,,0.00,,2013-05-25 19:52:00,
2013-05-25 15:02:00,81.0,66.0,30.04,SSW,199,2.0,6.0,60,0.00,,,0.00,,2013-05-25 20:02:00,
2013-05-25 15:11:00,81.0,66.0,30.04,SSW,199,2.0,6.0,60,0.00,,,0.00,,2013-05-25 20:11:00,
2013-05-25 15:22:00,81.0,66.0,30.04,SSW,199,2.0,6.0,60,0.00,,,0.00,,2013-05-25 20:22:00,
2013-05-25 15:32:00,82.0,65.0,30.03,South,176,3.0,3.0,57,0.00,,,0.00,,2013-05-25 20:32:00,
2013-05-25 15:42:00,82.0,65.0,30.03,South,176,3.0,3.0,57,0.00,,,0.00,,2013-05-25 20:42:00,
2013-05-25 15:52:00,82.0,65.0,30.03,South,176,3.0,3.0,57,0.00,,,0.00,,2013-05-25 20:52:00,
2013-05-25 16:02:00,83.0,65.0,30.03,ESE,116,4.0,7.0,54,0.00,,,0.00,,2013-05-25 21:02:00,
2013-05-25 16:11:00,83.0,65.0,30.03,ESE,116,4.0,7.0,54,0.00,,,0.00,,2013-05-25 21:11:00,
2013-05-25 16:21:00,83.0,65.0,30.03,ESE,116,4.0,7.0,54,0.00,,,0.00,,2013-05-25 21:21:00,
2013-05-25 16:33:00,82.0,65.0,30.01,East,101,4.0,6.0,56,0.00,,,0.00,,2013-05-25 21:33:00,
2013-05-25 16:43:00,82.0,65.0,30.01,East,101,4.0,6.0,56,0.00,,,0.00,,2013-05-25 21:43:00,
2013-05-25 16:53:00,82.0,65.0,30.03,South,176,3.0,3.0,57,0.00,,,0.00,,2013-05-25 21:53:00,
2013-05-25 17:03:00,82.0,64.0,30.01,SE,135,4.0,9.0,55,0.00,,,0.00,,2013-05-25 22:03:00,
2013-05-25 17:12:00,82.0,64.0,30.01,SE,135,4.0,9.0,55,0.00,,,0.00,,2013-05-25 22:12:00,
2013-05-25 17:22:00,82.0,64.0,30.01,SE,135,4.0,9.0,55,0.00,,,0.00,,2013-05-25 22:22:00,
2013-05-25 17:32:00,81.0,65.0,29.99,SE,126,3.0,6.0,58,0.00,,,0.00,,2013-05-25 22:32:00,
2013-05-25 17:42:00,81.0,65.0,29.99,SE,126,3.0,6.0,58,0.00,,,0.00,,2013-05-25 22:42:00,
2013-05-25 17:52:00,81.0,65.0,29.99,SE,126,3.0,6.0,58,0.00,,,0.00,,2013-05-25 22:52:00,
2013-05-25 18:02:00,80.0,64.0,29.98,South,171,5.0,5.0,59,0.00,,,0.00,,2013-05-25 23:02:00,
2013-05-25 18:12:00,80.0,64.0,29.98,South,171,5.0,5.0,59,0.00,,,0.00,,2013-05-25 23:12:00,
2013-05-25 18:22:00,80.0,64.0,29.98,South,171,5.0,5.0,59,0.00,,,0.00,,2013-05-25 23:22:00,
2013-05-25 18:32:00,80.0,62.0,29.98,SSW,204,2.0,5.0,55,0.00,,,0.00,,2013-05-25 23:32:00,
2013-05-25 18:42:00,80.0,62.0,29.98,SSW,204,2.0,5.0,55,0.00,,,0.00,,2013-05-25 23:42:00,
2013-05-25 18:52:00,80.0,62.0,29.98,SSW,204,2.0,5.0,55,0.00,,,0.00,,2013-05-25 23:52:00,
2013-05-25 19:01:00,80.0,64.0,29.97,South,175,4.0,5.0,58,0.00,,,0.00,,2013-05-26 00:01:00,
2013-05-25 19:11:00,80.0,64.0,29.97,South,175,4.0,5.0,58,0.00,,,0.00,,2013-05-26 00:11:00,
2013-05-25 19:22:00,80.0,64.0,29.97,South,175,4.0,5.0,58,0.00,,,0.00,,2013-05-26 00:22:00,
2013-05-25 19:31:00,79.0,63.0,29.97,SSE,158,5.0,5.0,59,0.00,,,0.00,,2013-05-26 00:31:00,
2013-05-25 19:43:00,79.0,63.0,29.97,SSE,158,5.0,5.0,59,0.00,,,0.00,,2013-05-26 00:43:00,
2013-05-25 19:52:00,79.0,63.0,29.97,SSE,158,5.0,5.0,59,0.00,,,0.00,,2013-05-26 00:52:00,
2013-05-25 20:01:00,79.0,64.0,29.98,SSE,162,3.0,3.0,61,0.00,,,0.00,,2013-05-26 01:01:00,
2013-05-25 20:11:00,79.0,64.0,29.98,SSE,162,3.0,3.0,61,0.00,,,0.00,,2013-05-26 01:11:00,
2013-05-25 20:21:00,79.0,64.0,29.98,SSE,162,3.0,3.0,61,0.00,,,0.00,,2013-05-26 01:21:00,
2013-05-25 20:32:00,78.0,64.0,29.98,SE,137,1.0,2.0,63,0.00,,,0.00,,2013-05-26 01:32:00,
2013-05-25 20:42:00,78.0,64.0,29.98,SE,137,1.0,2.0,63,0.00,,,0.00,,2013-05-26 01:42:00,
2013-05-25 20:53:00,78.0,64.0,29.98,SE,137,1.0,2.0,63,0.00,,,0.00,,2013-05-26 01:53:00,
2013-05-25 21:02:00,77.0,63.0,29.97,SE,126,1.0,2.0,63,0.00,,,0.00,,2013-05-26 02:02:00,
2013-05-25 21:11:00,77.0,63.0,29.97,SE,126,1.0,2.0,63,0.00,,,0.00,,2013-05-26 02:11:00,
2013-05-25 21:21:00,77.0,63.0,29.97,SE,126,1.0,2.0,63,0.00,,,0.00,,2013-05-26 02:21:00,
2013-05-25 21:32:00,76.0,64.0,29.98,ESE,112,1.0,2.0,66,0.00,,,0.00,,2013-05-26 02:32:00,
2013-05-25 21:42:00,76.0,64.0,29.98,ESE,112,1.0,2.0,66,0.00,,,0.00,,2013-05-26 02:42:00,
2013-05-25 21:52:00,76.0,64.0,29.98,ESE,112,1.0,2.0,66,0.00,,,0.00,,2013-05-26 02:52:00,
2013-05-25 22:01:00,75.0,64.0,30.00,ESE,111,1.0,2.0,69,0.00,,,0.00,,2013-05-26 03:01:00,
2013-05-25 22:11:00,75.0,64.0,30.00,ESE,111,1.0,2.0,69,0.00,,,0.00,,2013-05-26 03:11:00,
2013-05-25 22:21:00,75.0,64.0,30.00,ESE,111,1.0,2.0,69,0.00,,,0.00,,2013-05-26 03:21:00,
2013-05-25 22:33:00,74.0,64.0,30.00,ESE,111,1.0,1.0,72,0.00,,,0.00,,2013-05-26 03:33:00,
2013-05-25 22:43:00,74.0,64.0,30.00,ESE,111,1.0,1.0,72,0.00,,,0.00,,2013-05-26 03:43:00,
2013-05-25 22:53:00,74.0,64.0,30.00,ESE,111,1.0,1.0,72,0.00,,,0.00,,2013-05-26 03:53:00,
2013-05-25 23:02:00,73.0,64.0,30.02,North,360,0.0,1.0,74,0.00,,,0.00,,2013-05-26 04:02:00,
2013-05-25 23:12:00,73.0,64.0,30.02,North,360,0.0,1.0,74,0.00,,,0.00,,2013-05-26 04:12:00,
2013-05-25 23:23:00,73.0,64.0,30.02,North,360,0.0,1.0,74,0.00,,,0.00,,2013-05-26 04:23:00,
2013-05-25 23:33:00,73.0,65.0,30.02,ESE,109,1.0,1.0,75,0.00,,,0.00,,2013-05-26 04:33:00,
2013-05-25 23:42:00,73.0,65.0,30.02,ESE,109,1.0,1.0,75,0.00,,,0.00,,2013-05-26 04:42:00,
2013-05-25 23:52:00,73.0,65.0,30.02,ESE,109,1.0,1.0,75,0.00,,,0.00,,2013-05-26 04:52:00,